GW1554 Weather Reports


Display with metric or nautical units.
time (UTC)temp
F
wind
direction
speed
MPH
gust
MPH
rain 1hr
in
rain 24hr
in
rain mn
in
humidity
%
barometer
mb
20260902231530 69 4 3.0 6.0 0.00 0.00 0.00 90 1019.0
20260902230019 69 15 2.0 5.0 0.00 0.00 0.00 90 1019.1
20260902224519 70 349 0.0 2.0 0.00 0.00 0.00 90 1019.1
20260902223023 70 348 0.0 2.0 0.00 0.00 0.00 90 1019.1
20260902221517 70 354 0.0 2.0 0.00 0.00 0.00 89 1019.0
20260902220019 70 331 0.0 2.0 0.00 0.00 0.00 89 1018.9
20260902214516 70 360 0.0 1.0 0.00 0.00 0.00 88 1018.8
20260902213012 71 356 0.0 3.0 0.00 0.00 0.00 88 1018.7
20260902211511 71 329 0.0 4.0 0.00 0.00 0.00 88 1018.6
20260902210011 71 1 0.0 2.0 0.00 0.00 0.00 88 1018.6
20260902204511 71 1 0.0 1.0 0.00 0.00 0.00 88 1018.7
20260902203010 71 341 0.0 4.0 0.00 0.00 0.00 88 1018.5
20260902201517 71 348 0.0 3.0 0.00 0.00 0.00 89 1018.6
20260902200011 72 35 0.0 0.0 0.00 0.00 0.00 88 1018.5
20260902194508 72 37 0.0 0.0 0.00 0.00 0.00 87 1018.5
20260902193006 72 36 0.0 1.0 0.00 0.00 0.00 86 1018.4
20260902191512 72 5 0.0 4.0 0.00 0.00 0.00 86 1018.4
20260902190006 72 319 0.0 2.0 0.00 0.00 0.00 86 1018.3
20260902184505 73 84 0.0 1.0 0.00 0.00 0.00 87 1018.3
20260902183005 74 83 1.0 3.0 0.00 0.00 0.00 86 1018.2
20260902181504 74 122 0.0 3.0 0.00 0.00 0.00 85 1018.1
20260902180006 74 82 1.0 2.0 0.00 0.00 0.00 84 1018.0
20260902174505 75 86 2.0 4.0 0.00 0.00 0.00 82 1017.9
20260902173002 75 166 1.0 3.0 0.00 0.00 0.00 79 1018.1
20260902171500 76 99 1.0 6.0 0.00 0.00 0.00 80 1018.0
20260902170100 76 123 3.0 6.0 0.00 0.00 0.00 82 1018.0
20260902164603 76 120 1.0 5.0 0.00 0.00 0.00 84 1018.0
20260902163102 76 71 2.0 6.0 0.00 0.00 0.00 84 1018.0
20260902161559 77 136 3.0 7.0 0.00 0.00 0.00 81 1018.1
20260902160055 79 124 1.0 6.0 0.00 0.00 0.00 77 1018.1
20260902154607 80 139 2.0 9.0 0.00 0.00 0.00 76 1018.3
20260902153053 80 238 2.0 6.0 0.00 0.00 0.00 75 1018.2
20260902151554 81 266 1.0 6.0 0.00 0.00 0.00 73 1018.3
20260902150052 81 250 2.0 9.0 0.00 0.00 0.00 71 1018.3
20260902144550 82 174 3.0 9.0 0.00 0.00 0.00 71 1018.3
20260902143052 83 219 4.0 8.0 0.00 0.00 0.00 69 1018.4
20260902141552 83 142 3.0 7.0 0.00 0.00 0.00 69 1018.6
20260902140051 83 125 1.0 7.0 0.00 0.00 0.00 70 1018.6
20260902134546 82 226 1.0 10.0 0.00 0.00 0.00 73 1018.7
20260902133048 82 122 3.0 7.0 0.00 0.00 0.00 73 1018.9
20260902131549 82 145 3.0 8.0 0.00 0.00 0.00 73 1019.0
20260902130045 82 236 3.0 9.0 0.00 0.00 0.00 73 1019.1
20260902124544 83 228 1.0 6.0 0.00 0.00 0.00 71 1019.1
20260902123042 83 134 3.0 10.0 0.00 0.00 0.00 72 1019.2
20260902121541 82 209 4.0 9.0 0.00 0.00 0.00 71 1019.2
20260902120040 83 158 1.0 8.0 0.00 0.00 0.00 70 1019.3
20260902114609 81 111 2.0 11.0 0.00 0.00 0.00 72 1019.4
20260902113039 81 283 2.0 9.0 0.00 0.00 0.00 71 1019.5
20260902111537 82 165 4.0 9.0 0.00 0.00 0.00 69 1019.7
20260902110036 82 127 2.0 6.0 0.00 0.00 0.00 70 1019.9
20260902104534 82 191 2.0 6.0 0.00 0.00 0.00 70 1020.0
20260902103033 81 105 2.0 8.0 0.00 0.00 0.00 69 1020.0
20260902101533 81 32 1.0 8.0 0.00 0.00 0.00 68 1020.2
20260902100035 80 222 1.0 5.0 0.00 0.00 0.00 66 1020.2
20260902094530 81 221 3.0 9.0 0.00 0.00 0.00 64 1020.1
20260902093028 81 233 3.0 8.0 0.00 0.00 0.00 65 1020.1
20260902091527 80 136 2.0 6.0 0.00 0.00 0.00 69 1020.2
20260902090027 80 54 1.0 5.0 0.00 0.00 0.00 68 1020.0
20260902084521 79 236 2.0 6.0 0.00 0.00 0.00 68 1020.0
20260902083025 79 298 0.0 4.0 0.00 0.00 0.00 69 1019.9
20260902081517 79 78 1.0 5.0 0.00 0.00 0.00 72 1019.7
20260902080016 79 158 1.0 3.0 0.00 0.00 0.00 73 1019.5
20260902074517 78 231 0.0 2.0 0.00 0.00 0.00 72 1019.4
20260902073010 76 288 1.0 3.0 0.00 0.00 0.00 76 1019.5
20260902071508 76 269 0.0 2.0 0.00 0.00 0.00 77 1019.6
20260902070008 75 278 0.0 2.0 0.00 0.00 0.00 80 1019.4
20260902064505 74 271 0.0 2.0 0.00 0.00 0.00 79 1019.5
20260902063001 73 294 0.0 1.0 0.00 0.00 0.00 74 1019.4
20260902061628 72 330 0.0 4.0 0.00 0.00 0.00 71 1019.3
20260902060100 72 1 0.0 1.0 0.00 0.00 0.00 71 1019.3
20260902054558 70 319 2.0 6.0 0.00 0.00 0.00 72 1019.1
20260902053055 69 32 3.0 6.0 0.00 0.00 0.00 72 1019.0
20260902051554 69 356 3.0 7.0 0.00 0.00 0.00 73 1018.9
20260902050056 69 329 3.0 6.0 0.00 0.00 0.00 74 1018.8
20260902044552 68 311 2.0 5.0 0.00 0.00 0.00 76 1018.8
20260902043053 69 313 3.0 7.0 0.00 0.00 0.00 76 1018.9
20260902041605 69 30 4.0 7.0 0.00 0.00 0.00 77 1018.9
20260902040049 69 319 4.0 7.0 0.00 0.00 0.00 81 1018.8
20260902034547 69 4 2.0 6.0 0.00 0.00 0.00 83 1018.9
20260902033045 69 329 1.0 5.0 0.00 0.00 0.00 81 1018.9
20260902031542 70 320 2.0 4.0 0.00 0.00 0.00 78 1019.0
20260902030040 70 310 1.0 5.0 0.00 0.00 0.00 75 1019.2
20260902024544 70 303 0.0 4.0 0.00 0.00 0.00 74 1019.0
20260902023041 70 291 0.0 2.0 0.00 0.00 0.00 74 1018.9
20260902021546 70 323 1.0 4.0 0.00 0.00 0.00 73 1019.0
20260902020037 70 330 1.0 4.0 0.00 0.00 0.00 73 1019.0
20260902014538 71 298 1.0 3.0 0.00 0.00 0.00 72 1019.0
20260902013034 71 338 2.0 6.0 0.00 0.00 0.00 72 1018.9
20260902011533 70 306 3.0 6.0 0.00 0.00 0.00 72 1018.9
20260902010032 70 330 0.0 3.0 0.00 0.00 0.00 71 1018.8
20260902004531 71 13 0.0 2.0 0.00 0.00 0.00 70 1018.9
20260902003029 71 360 0.0 3.0 0.00 0.00 0.00 68 1019.0
20260902001527 71 335 2.0 5.0 0.00 0.00 0.00 67 1019.0
20260902000026 71 328 1.0 7.0 0.00 0.00 0.00 68 1019.0
20260901234523 71 292 4.0 8.0 0.00 0.00 0.00 67 1019.0
20260901233047 72 342 3.0 7.0 0.00 0.00 0.00 69 1019.0